This is the latest recevied weather packets stored in our database for station/object N8HON. If no packets are shown the sender has not sent any weather packets the latest 10 day(s).
| Time | Temp. | Humidity | Pressure | Rain* | Wind** | Luminosity | Snow |
|---|---|---|---|---|---|---|---|
| 1777726671 | 6.67° C | 67% | 1012.3 hPa | 0 mm | - | 246 W/m² | - |
| 1777726368 | 6.11° C | 69% | 1012.4 hPa | 0 mm | - | 165 W/m² | - |
| 1777726065 | 6.11° C | 68% | 1012.4 hPa | 0 mm | - | 141 W/m² | - |
| 1777725761 | 6.11° C | 70% | 1012.1 hPa | 0 mm | - | 158 W/m² | - |
| 1777725460 | 5.56° C | 75% | 1012.2 hPa | 0 mm | - | 143 W/m² | - |
| 1777725157 | 5.56° C | 72% | 1012.5 hPa | 0 mm | - | 148 W/m² | - |
| 1777724854 | 5.56° C | 73% | 1012.4 hPa | 0 mm | - | 136 W/m² | - |
| 1777724550 | 5.56° C | 73% | 1012.3 hPa | 0 mm | - | 134 W/m² | - |
| 1777724249 | 5.56° C | 74% | 1012.5 hPa | 0 mm | - | 127 W/m² | - |
| 1777723946 | 5.56° C | 74% | 1012.3 hPa | 0 mm | - | 113 W/m² | - |
| 1777723642 | 5.56° C | 72% | 1012.3 hPa | 0 mm | - | 109 W/m² | - |
| 1777723339 | 5.56° C | 74% | 1012.1 hPa | 0 mm | - | 105 W/m² | - |
| 1777723037 | 5.56° C | 72% | 1012.2 hPa | 0 mm | - | 101 W/m² | - |
| 1777722733 | 5.56° C | 72% | 1012.4 hPa | 0 mm | - | 94 W/m² | - |
| 1777722429 | 5° C | 73% | 1012.3 hPa | 0 mm | - | 85 W/m² | - |
| 1777722127 | 5° C | 74% | 1012.3 hPa | 0 mm | - | 84 W/m² | - |
| 1777721824 | 4.44° C | 76% | 1012.3 hPa | 0 mm | - | 72 W/m² | - |
| 1777721522 | 4.44° C | 78% | 1012.2 hPa | 0 mm | - | 59 W/m² | - |
| 1777721219 | 3.89° C | 79% | 1012.3 hPa | 0 mm | - | 58 W/m² | - |
| 1777720917 | 3.89° C | 79% | 1012.5 hPa | 0 mm | - | 46 W/m² | - |
| 1777720614 | 3.89° C | 78% | 1012.2 hPa | 0 mm | - | 41 W/m² | - |
| 1777720311 | 3.89° C | 78% | 1012.5 hPa | 0 mm | - | 37 W/m² | - |
| 1777720009 | 3.89° C | 77% | 1012.6 hPa | 0 mm | - | 30 W/m² | - |
| 1777719706 | 3.89° C | 76% | 1012.4 hPa | 0 mm | - | 29 W/m² | - |
| 1777719404 | 3.89° C | 76% | 1012.4 hPa | 0 mm | - | 23 W/m² | - |
* Rain latest hour (hover to see other rain measurements)
** Current wind speed in m/s (hover to see current wind gust speed)